Alpena, MI

2:52 AM EDT on June 27, 2017 (GMT -0400)
Alpena County Regional

Weather History for KAPN - August, 2013

Change the Weather History Date:

Wednesday, August 7, 2013

  Actual Average Record
Temperature  
Mean Temperature 71 °F 67 °F  
Max Temperature 80 °F 78 °F 97 °F (2001)
Min Temperature 61 °F 55 °F 40 °F (1917)
Degree Days  
Heating Degree Days 0 2  
Month to date heating degree days 16 10  
Since 1 June heating degree days 205 197  
Since 1 July heating degree days 69 54  
Cooling Degree Days 6 3  
Month to date cooling degree days 10 22  
Year to date cooling degree days 216 207  
Since 1 June cooling degree days 203 194  
Growing Degree Days 20 (Base 50)    
Moisture  
Dew Point 61 °F    
Average Humidity 76    
Maximum Humidity 100    
Minimum Humidity 51    
Precipitation  
Precipitation 0.32 in 0.09 in 1.73 in (1980)
Month to date precipitation 0.77 0.68  
Year to date precipitation 21.26 16.23  
Sea Level Pressure  
Sea Level Pressure 29.79 in    
Wind  
Wind Speed 8 mph (WSW)    
Max Wind Speed 26 mph    
Max Gust Speed 35 mph    
Visibility 8 miles    
Events Rain , Thunderstorm    
T = Trace of Precipitation, MM = Missing Value Source: NWS Daily Summary

Daily Weather History Graph

Daily Weather History Graph

Search for Another Location

Airport or City:

Trip Planner

Search our weather history database for the weather conditions in past years. The results will help you decide how hot, cold, wet, or windy it might be!

Date:

Astronomy

Aug. 07, 2013 Rise Set
Actual Time 6:26 AM EDT 8:52 PM EDT
Civil Twilight 5:53 AM EDT 9:25 PM EDT
Nautical Twilight 5:12 AM EDT 10:06 PM EDT
Astronomical Twilight 4:25 AM EDT 10:52 PM EDT
Moon 7:19 AM EDT (8/7) 8:52 PM EDT (8/7)
Length of Visible Light 15h 31m
Length of Day
14h 25m
New Moon, 1% of the Moon is Illuminated
Aug 7
New Moon
Aug 14
First Quarter
Aug 20
Full
Aug 28
Last Quarter
Sep 5
New

Hourly Weather History & Observations

Time (EDT) Temp. Heat Index Dew Point Humidity Pressure Visibility Wind Dir Wind Speed Gust Speed Precip Events Conditions
12:54 AM 66.0 °F - 64.0 °F 93% 29.83 in 6.0 mi SSW 5.8 mph - N/A   Clear
1:54 AM 66.0 °F - 64.0 °F 93% 29.81 in 5.0 mi SSW 8.1 mph - N/A   Clear
2:54 AM 64.9 °F - 64.0 °F 97% 29.80 in 4.0 mi SSW 5.8 mph - N/A   Clear
3:27 AM 62.6 °F - 62.6 °F 100% 29.80 in 3.0 mi SSW 3.5 mph - N/A   Partly Cloudy
3:43 AM 62.6 °F - 60.8 °F 94% 29.79 in 1.8 mi South 4.6 mph - N/A   Clear
3:54 AM 61.0 °F - 61.0 °F 100% 29.77 in 2.0 mi South 4.6 mph - N/A   Clear
4:03 AM 60.8 °F - 60.8 °F 100% 29.78 in 1.8 mi South 4.6 mph - N/A   Clear
4:11 AM 62.6 °F - 62.6 °F 100% 29.78 in 3.0 mi South 4.6 mph - N/A   Clear
4:54 AM 63.0 °F - 63.0 °F 100% 29.75 in 4.0 mi South 4.6 mph - N/A   Clear
5:54 AM 66.0 °F - 64.9 °F 96% 29.74 in 3.0 mi South 6.9 mph - 0.01 in Rain Light Rain
6:04 AM 66.2 °F - 64.4 °F 94% 29.76 in 2.0 mi SSW 19.6 mph 32.2 mph 0.01 in Rain , Thunderstorm Heavy Thunderstorms and Rain
6:06 AM 66.2 °F - 64.4 °F 94% 29.75 in 1.2 mi SSW 26.5 mph 34.5 mph 0.04 in Rain , Thunderstorm Heavy Thunderstorms and Rain
6:16 AM 66.2 °F - 64.4 °F 94% 29.74 in 2.0 mi South 12.7 mph - 0.28 in Rain , Thunderstorm Thunderstorms and Rain
6:23 AM 66.2 °F - 62.6 °F 88% 29.71 in 6.0 mi SSE 17.3 mph - 0.30 in Rain , Thunderstorm Thunderstorms and Rain
6:31 AM 64.4 °F - 62.6 °F 94% 29.69 in 9.0 mi SE 15.0 mph - 0.31 in Rain , Thunderstorm Light Thunderstorms and Rain
6:54 AM 64.9 °F - 63.0 °F 93% 29.70 in 10.0 mi South 11.5 mph 20.7 mph 0.31 in   Partly Cloudy
7:54 AM 66.9 °F - 63.0 °F 87% 29.73 in 10.0 mi SSW 10.4 mph - N/A   Clear
8:54 AM 66.0 °F - 63.0 °F 90% 29.72 in 10.0 mi SW 8.1 mph - N/A   Clear
9:54 AM 70.0 °F - 61.0 °F 73% 29.73 in 10.0 mi West 11.5 mph 24.2 mph N/A   Clear
10:09 AM 69.8 °F - 60.8 °F 73% 29.74 in 10.0 mi West 12.7 mph 20.7 mph N/A   Mostly Cloudy
10:40 AM 71.6 °F - 62.6 °F 73% 29.74 in 10.0 mi WSW 13.8 mph 23.0 mph N/A   Mostly Cloudy
10:54 AM 71.1 °F - 61.0 °F 70% 29.74 in 10.0 mi WSW 12.7 mph 24.2 mph N/A   Mostly Cloudy
11:25 AM 71.6 °F - 62.6 °F 73% 29.75 in 10.0 mi West 12.7 mph 20.7 mph N/A   Overcast
11:37 AM 71.6 °F - 62.6 °F 73% 29.76 in 10.0 mi West 8.1 mph - N/A   Overcast
11:54 AM 72.0 °F - 62.1 °F 71% 29.77 in 10.0 mi West 11.5 mph 19.6 mph N/A   Overcast
12:31 PM 73.4 °F - 62.6 °F 69% 29.78 in 10.0 mi West 8.1 mph - N/A   Mostly Cloudy
12:54 PM 73.9 °F - 60.1 °F 62% 29.78 in 10.0 mi Variable 6.9 mph - N/A   Mostly Cloudy
1:54 PM 75.0 °F - 60.1 °F 60% 29.78 in 10.0 mi West 6.9 mph 17.3 mph N/A   Mostly Cloudy
2:54 PM 78.1 °F - 60.1 °F 54% 29.78 in 10.0 mi WSW 11.5 mph 16.1 mph N/A   Partly Cloudy
3:54 PM 79.0 °F - 61.0 °F 54% 29.80 in 10.0 mi NW 8.1 mph - N/A   Mostly Cloudy
4:54 PM 80.1 °F 80.9 °F 60.1 °F 50% 29.80 in 10.0 mi West 6.9 mph 16.1 mph N/A   Mostly Cloudy
5:54 PM 75.9 °F - 61.0 °F 60% 29.82 in 10.0 mi WNW 8.1 mph - N/A   Mostly Cloudy
6:54 PM 75.0 °F - 60.1 °F 60% 29.84 in 10.0 mi NW 6.9 mph - N/A   Mostly Cloudy
7:54 PM 72.0 °F - 59.0 °F 64% 29.86 in 10.0 mi NW 10.4 mph - N/A   Partly Cloudy
8:54 PM 68.0 °F - 59.0 °F 73% 29.87 in 10.0 mi NW 6.9 mph - N/A   Clear
9:54 PM 66.0 °F - 59.0 °F 78% 29.90 in 10.0 mi NW 5.8 mph - N/A   Clear
10:54 PM 64.0 °F - 57.9 °F 80% 29.93 in 10.0 mi NW 8.1 mph - N/A   Clear
11:28 PM 62.6 °F - 59.0 °F 88% 29.94 in 10.0 mi NNW 5.8 mph - N/A   Mostly Cloudy
11:50 PM 62.6 °F - 57.2 °F 82% 29.94 in 10.0 mi WNW 3.5 mph - N/A   Scattered Clouds
11:54 PM 62.1 °F - 57.9 °F 86% 29.94 in 10.0 mi West 3.5 mph - N/A   Partly Cloudy